Location: Marstown
(39.5056°N, 77.0820°W)
Time: 04:35:50
(UTC-04:00)

ACS3 Solar Sail - Pass Details

Date: 14 May 2026
Orbit: 877 x 953 km, 97.2° (Epoch: 8 June)

Event Time Altitude Azimuth Distance (km) Brightness Sun altitude
Rises 02:19:04 0° 7° (N) 3,492 5.8 -29.3°
Reaches altitude 10° 02:21:30 10° 4° (N) 2,543 4.8 -29.1°
Enters shadow 02:26:48 60° 299° (WNW) 1,002 1.8 -28.8°
